Regional Weather Roundup
Issued by NWS

Home | Current Version | Previous Version | Text Only | Print | Product List | Glossary On
Versions: 1 2 3 4 5 6 7 8 9 10 11 12 13 14 15 16 17 18 19 20 21 22 23 24 25 26 27 28 29 30 31 32 33 34 35 36 37 38 39 40 41 42 43 44 45 46 47 48 49 50
474
ASUS45 KBOU 132210
RWRCO

WEATHER ROUNDUP FOR COLORADO
NATIONAL WEATHER SERVICE DENVER/BOULDER CO
400 PM MDT SUN OCT 13 2019

NOTE: "FAIR" INDICATES FEW OR NO CLOUDS BELOW 12000 FEET WITH NO
SIGNIFICANT WEATHER AND/OR OBSTRUCTIONS TO VISIBILITY.

COZ001>005-013-030-031-132300-
...NORTHWEST COLORADO...

CITY           SKY/WX    TMP DP  RH WIND       PRES   REMARKS
CRAIG          FAIR      66  -5   5 NW8       30.02F
HAYDEN         FAIR      62  -4   7 NW10      30.05F
MEEKER         FAIR      65  -4   6 SW8       30.02F
RANGELY        FAIR      65  -1   7 SW5       29.99F
RABBIT EARS PA FAIR      43   3  19 SW3       30.22S
STEAMBOAT SPGS FAIR      60   4  10 S5        30.05F
WALDEN         NOT AVBL
$$

COZ006>008-011-132300-
...WEST CENTRAL VALLEYS...

CITY           SKY/WX    TMP DP  RH WIND       PRES   REMARKS
GRAND JUNCTION FAIR      66  -3   6 NW8       30.01F
MONTROSE       FAIR      66   6   9 NW8       30.04F
EAGLE          FAIR      66   0   7 W12G17    30.06S
RIFLE          FAIR      67  -3   6 W12       30.02F
DELTA          FAIR      71   0   6 SW7       30.02S
NUCLA          FAIR      68   5   8 W5        30.07S
$$

COZ017>023-064>068-132300-
...SOUTHWEST COLORADO...

CITY           SKY/WX    TMP DP  RH WIND       PRES   REMARKS
DURANGO        FAIR      65  11  12 W16G25    30.11R
CORTEZ         FAIR      69  16  13 SW12      30.08S
PAGOSA SPRINGS FAIR      64  11  12 W13G20    30.14S
TELLURIDE      FAIR      59   3  10 W14       30.19S
WOLF CREEK PAS FAIR      45   3  18 S14G25    30.37S
$$

COZ009-010-012-014-032>034-037-058>063-132300-
...CENTRAL COLORADO...

CITY           SKY/WX    TMP DP  RH WIND       PRES   REMARKS
ASPEN          FAIR      62   2   9 N8        30.08F
BUENA VISTA    FAIR      64 -18   3 SW17G23   30.07S
COPPER MTN     FAIR      45  -6  12 SW10      30.30R
BERTHOUD PASS  FAIR      36  19  51 NW20G33   30.30R
DAKOTA HILL    FAIR      43   0  16 NW10G21   30.23S
COTTONWOOD PAS FAIR      55 N/A N/A W5G22     30.19R
GUNNISON       FAIR      63  -8   5 W13       30.10F
GRANBY         NOT AVBL
KREMMLING      FAIR      61   9  12 SW12      30.07F
LEADVILLE      FAIR      53 -10   7 MISG      30.17S
MONARCH PASS   FAIR      43 -15   8 W33G44    30.39R
SALIDA         FAIR      67 -19   3 W20G25    30.14R
SUNLIGHT       FAIR      45  -4  13 CALM      30.27F
WILKERSON PASS FAIR      52 -11   7 W6        30.28S
$$

COZ069>075-132300-
...SAN LUIS VALLEY/SANGRE DE CRISTO MOUNTAINS...

CITY           SKY/WX    TMP DP  RH WIND       PRES   REMARKS
ALAMOSA        NOT AVBL
DEL NORTE      FAIR      60   0   9 SE9       30.13S
LA VETA PASS   FAIR      52 -15   6 SW6       30.23S
SAGUACHE       FAIR      61  -4   7 S10       30.12S
$$

COZ035-036-038>040-132300-
...NORTHERN COLORADO FRONT RANGE...

CITY           SKY/WX    TMP DP  RH WIND       PRES   REMARKS
DENVER INTL AP FAIR      72   2   6 CALM      29.94F
AURORA         SUNNY     71   1   6 CALM      29.96S
FRONT RANGE AP SUNNY     72   7   8 NW3       29.96S
ERIE MUNI ARPT FAIR      74   2   6 SE3       29.97S
BOULDER MUN AP FAIR      73  12   9 NW12      29.91F
CENTENNIAL     FAIR      72   4   7 NE8       29.96S
BROOMFIELD     NOT AVBL
FORT COLLINS   FAIR      73  13  10 VRB6      29.93S
LONGMONT       FAIR      77   9   7 NE6       29.93R
$$

COZ041-046-047-076>085-087-088-132300-
...PIKES PEAK/PALMER DIVIDE AND SOUTHERN FOOTHILLS...

CITY           SKY/WX    TMP DP  RH WIND       PRES   REMARKS
COLO. SPRINGS  FAIR      68   0   6 SE10G20   30.01S
A. F. ACADEMY  FAIR      67  -3   6 SE9       29.99S
SCHRIEVER AFB  NOT AVBL
CHEYENNE MTN   NOT AVBL
ELLICOTT       FAIR      67  -6   5 SE8       30.02S
FALCON         FAIR      66  -2   6 S7        30.04S
FORT CARSON    FAIR      69  -5   5 SE7       29.97S
LIMON          FAIR      69  -1   6 SE14      29.97S
MONUMENT HILL  FAIR      64   3   9 E12       30.04S
CANON CITY     FAIR      77  -8   3 W10       29.93F
WALSENBURG     NOT AVBL
TRINIDAD       FAIR      73  -1   5 SE8       29.99S
$$

COZ042>045-048>051-090-091-132300-
...NORTHEAST COLORADO...

CITY           SKY/WX    TMP DP  RH WIND       PRES   REMARKS
GREELEY ARPT   FAIR      74   7   7 S7        29.92F
AKRON          FAIR      70   8   9 SW5       29.94S
BURLINGTON     FAIR      74   5   7 S6        29.95S
WRAY           FAIR      72  14  11 CALM      29.93F
YUMA           FAIR      72  14  11 SE9       29.92F
STERLING       FAIR      72  14  11 SW10      29.90S
HOLYOKE        FAIR      73  14  10 S5        29.93S
FORT MORGAN    FAIR      74   8   8 S5        29.93S
$$

COZ086-089-092>099-132300-
...SOUTHEAST COLORADO...

CITY           SKY/WX    TMP DP  RH WIND       PRES   REMARKS
PUEBLO         FAIR      75  -2   5 SE6       29.93S
LA JUNTA       FAIR      73   9   8 S3        29.94S
LAMAR          FAIR      75  14  10 SE9       29.91F
SPRINGFIELD      N/A     71  15  11 VRB6      29.96R
$$




USA.gov is the U.S. government's official web portal to all federal, state and local government web resources and services.